FENGYUN 1C DEB, 29844

Orbit data source: Space-Track

FENGYUN 1C DEB, 29844 is space debris in SSO originally from a launch on Mon, 10 May 1999 UTC launched from the Taiyaun Space Center, China (TSC). Fengyun 1C debris stems from the Chinese weather satellite Fengyun-1C, which was intentionally destroyed by a Chinese anti-satellite missile in 2007. This event dramatically increased the amount of space debris, with thousands of trackable fragments posing hazards to satellites and human spaceflight. The Fengyun 1C debris cloud has become a focal point in discussions about space sustainability and the need for international regulations to prevent the creation of new debris.

Loading next visibility...
Identifier
29844, 1999-025EN
Orbit
SSO
Country
Flag of CNCN / PRC
Related business
Manufacturer
Unknown
Mission
Spacecraft
Bus & Motor
Unknown
Mass
Unknown
Launch date (UTC)
1999-05-10 (27 years ago)
Launch vehicle
Unknown
Launch site
Taiyaun Space Center, China (TSC)
Object type
Payload
Rocket body
Debris
Shape & HBR
Unknown shape, 0.1 m
Radar Cross Section
Medium (>0.1 m² and <1 m²)

Expand to show TLE details & history
Last TLE update: 23 hours ago

TLE from 23 hours ago
0 FENGYUN 1C DEB
1 29844U 99025EN  26254.73567063  .00000848  00000-0  28225-3 0  9990
2 29844  98.9215 169.3328 0167783  89.5339 272.5066 14.32704975 22503
Epoch: 2026-09-11T17:39Z
TLE epoch observation values (Epoch: 2026-09-11T17:39:21.942Z)
Latitude
-0.00009°
Longitude
-86.26337°
Altitude
782.388 km
Speed
7.464 km/s
True Right ascension
11h 17m 19s
True Declination
0° 00' 00"
Sunlit
Object was in daylight at epoch
Visualization orbit readout
Latitude
Unknown
Longitude
Unknown
Altitude
Unknown
Speed
Unknown
Apparent Right ascension
Unknown
Apparent Declination
Unknown
Sunlit
N/A
Visualization observer readout
Local Sidereal Time
08:48:18
Azimuth
Unknown
Elevation
Unknown
Doppler factor
Unknown
Orbital elements
Apogee altitude
899.953 km
Perigee altitude
659.755 km
Semi-major axis
7,157.991 km
Eccentricity
0.01678
Inclination
98.9215°
RAAN
169.3328°
Arg. of periapsis
89.5339°
True anomaly
270.58439°
Mean anomaly
272.5066°
Eccentric anomaly
271.54562°
Mean motion
3.5839 °/min
Orbital period
100.45 mins
BSTAR
0.00028225
Loading maneuver chart data...
Computing Atmospheric mass density...

Documentation

Showing up to 5 results
|